| time (UTC) | temp F | wind direction | speed knots | gust knots | rain 1hr in | rain 24hr in | rain mn in | humidity % | barometer mb |
| 20260906010301 | 70 | 70 | 9.6 | 0.0 | 0.00 | 0.00 | 0.00 | 60 | 1016.0 |
| 20260906004916 | 70 | 80 | 11.3 | 0.0 | 0.00 | 0.00 | 0.00 | 60 | 1015.0 |
| 20260906003416 | 70 | 80 | 9.6 | 0.0 | 0.00 | 0.00 | 0.00 | 60 | 1015.0 |
| 20260906001915 | 70 | 80 | 9.6 | 0.0 | 0.00 | 0.00 | 0.00 | 60 | 1015.0 |
| 20260906000404 | 72 | 90 | 8.7 | 0.0 | 0.00 | 0.00 | 0.00 | 57 | 1015.0 |
| 20260905234812 | 72 | 90 | 8.7 | 0.0 | 0.00 | 0.00 | 0.00 | 57 | 1015.0 |
| 20260905233302 | 72 | 90 | 8.7 | 0.0 | 0.00 | 0.00 | 0.00 | 57 | 1015.0 |
| 20260905231915 | 72 | 80 | 8.7 | 0.0 | 0.00 | 0.00 | 0.00 | 57 | 1015.0 |
| 20260905230334 | 72 | 80 | 8.7 | 0.0 | 0.00 | 0.00 | 0.00 | 57 | 1015.0 |
| 20260905224915 | 72 | 40 | 8.7 | 0.0 | 0.00 | 0.00 | 0.00 | 61 | 1015.0 |
| 20260905223316 | 72 | 40 | 8.7 | 0.0 | 0.00 | 0.00 | 0.00 | 61 | 1015.0 |
| 20260905221900 | 73 | 1.7 | 0.0 | 0.00 | 0.00 | 0.00 | 53 | 1015.0 | |
| 20260905220415 | 72 | 330 | 4.3 | 0.0 | 0.00 | 0.00 | 0.00 | 57 | 1014.0 |
| 20260905214915 | 72 | 330 | 4.3 | 0.0 | 0.00 | 0.00 | 0.00 | 57 | 1014.0 |
| 20260905213302 | 72 | 330 | 4.3 | 0.0 | 0.00 | 0.00 | 0.00 | 57 | 1014.0 |
| 20260905211802 | 72 | 240 | 4.3 | 0.0 | 0.00 | 0.00 | 0.00 | 57 | 1014.0 |
| 20260905210302 | 72 | 240 | 4.3 | 0.0 | 0.00 | 0.00 | 0.00 | 57 | 1014.0 |
| 20260905204812 | 72 | 220 | 5.2 | 0.0 | 0.00 | 0.00 | 0.00 | 65 | 1014.0 |
| 20260905203302 | 72 | 220 | 5.2 | 0.0 | 0.00 | 0.00 | 0.00 | 65 | 1014.0 |
| 20260905201802 | 72 | 230 | 4.3 | 0.0 | 0.00 | 0.00 | 0.00 | 61 | 1014.0 |
| 20260905200416 | 73 | 250 | 2.6 | 0.0 | 0.00 | 0.00 | 0.00 | 53 | 1014.0 |
| 20260905194907 | 73 | 250 | 2.6 | 0.0 | 0.00 | 0.00 | 0.00 | 53 | 1014.0 |
| 20260905193302 | 73 | 250 | 2.6 | 0.0 | 0.00 | 0.00 | 0.00 | 53 | 1014.0 |
| 20260905191831 | 73 | 0 | 0.0 | 0.0 | 0.00 | 0.00 | 0.00 | 53 | 1014.0 |
| 20260905190302 | 73 | 0 | 0.0 | 0.0 | 0.00 | 0.00 | 0.00 | 53 | 1014.0 |
| 20260905184803 | 75 | 210 | 1.7 | 0.0 | 0.00 | 0.00 | 0.00 | 47 | 1014.0 |
| 20260905183307 | 75 | 210 | 1.7 | 0.0 | 0.00 | 0.00 | 0.00 | 47 | 1014.0 |
| 20260905181802 | 77 | 210 | 2.6 | 0.0 | 0.00 | 0.00 | 0.00 | 44 | 1014.0 |
| 20260905180302 | 77 | 210 | 2.6 | 0.0 | 0.00 | 0.00 | 0.00 | 44 | 1014.0 |
| 20260905174802 | 77 | 210 | 4.3 | 0.0 | 0.00 | 0.00 | 0.00 | 44 | 1014.0 |
| 20260905173302 | 77 | 210 | 4.3 | 0.0 | 0.00 | 0.00 | 0.00 | 44 | 1014.0 |
| 20260905171812 | 79 | 210 | 2.6 | 0.0 | 0.00 | 0.00 | 0.00 | 42 | 1014.0 |
| 20260905170302 | 79 | 210 | 2.6 | 0.0 | 0.00 | 0.00 | 0.00 | 42 | 1014.0 |
| 20260905164802 | 81 | 240 | 4.3 | 0.0 | 0.00 | 0.00 | 0.00 | 42 | 1014.0 |
| 20260905163303 | 81 | 240 | 4.3 | 0.0 | 0.00 | 0.00 | 0.00 | 42 | 1014.0 |
| 20260905161803 | 84 | 250 | 7.0 | 0.0 | 0.00 | 0.00 | 0.00 | 37 | 1014.0 |
| 20260905160302 | 84 | 250 | 7.0 | 0.0 | 0.00 | 0.00 | 0.00 | 37 | 1014.0 |
| 20260905154818 | 88 | 270 | 7.8 | 0.0 | 0.00 | 0.00 | 0.00 | 29 | 1014.0 |
| 20260905153302 | 88 | 270 | 7.8 | 0.0 | 0.00 | 0.00 | 0.00 | 29 | 1014.0 |
| 20260905151802 | 90 | 260 | 7.8 | 0.0 | 0.00 | 0.00 | 0.00 | 26 | 1014.0 |
| 20260905150303 | 90 | 260 | 7.8 | 0.0 | 0.00 | 0.00 | 0.00 | 26 | 1014.0 |
| 20260905144802 | 91 | 260 | 7.8 | 0.0 | 0.00 | 0.00 | 0.00 | 24 | 1014.0 |
| 20260905143302 | 91 | 260 | 7.8 | 0.0 | 0.00 | 0.00 | 0.00 | 24 | 1014.0 |
| 20260905141802 | 91 | 230 | 7.0 | 0.0 | 0.00 | 0.00 | 0.00 | 24 | 1014.0 |
| 20260905140302 | 91 | 230 | 7.0 | 0.0 | 0.00 | 0.00 | 0.00 | 24 | 1014.0 |
| 20260905134912 | 91 | 250 | 7.0 | 0.0 | 0.00 | 0.00 | 0.00 | 24 | 1014.0 |
| 20260905133302 | 91 | 250 | 7.0 | 0.0 | 0.00 | 0.00 | 0.00 | 24 | 1014.0 |
| 20260905131808 | 91 | 260 | 8.7 | 0.0 | 0.00 | 0.00 | 0.00 | 28 | 1014.0 |
| 20260905130323 | 91 | 260 | 8.7 | 0.0 | 0.00 | 0.00 | 0.00 | 28 | 1014.0 |
| 20260905124803 | 91 | 250 | 12.2 | 0.0 | 0.00 | 0.00 | 0.00 | 24 | 1015.0 |
| 20260905123303 | 91 | 250 | 12.2 | 0.0 | 0.00 | 0.00 | 0.00 | 24 | 1015.0 |
| 20260905121829 | 91 | 290 | 9.6 | 0.0 | 0.00 | 0.00 | 0.00 | 26 | 1015.0 |
| 20260905120302 | 91 | 290 | 9.6 | 0.0 | 0.00 | 0.00 | 0.00 | 26 | 1015.0 |
| 20260905114802 | 91 | 300 | 8.7 | 0.0 | 0.00 | 0.00 | 0.00 | 24 | 1016.0 |
| 20260905113302 | 91 | 300 | 8.7 | 0.0 | 0.00 | 0.00 | 0.00 | 24 | 1016.0 |
| 20260905111820 | 90 | 300 | 7.8 | 0.0 | 0.00 | 0.00 | 0.00 | 27 | 1016.0 |
| 20260905110302 | 90 | 300 | 7.8 | 0.0 | 0.00 | 0.00 | 0.00 | 27 | 1016.0 |
| 20260905104802 | 90 | 270 | 8.7 | 0.0 | 0.00 | 0.00 | 0.00 | 27 | 1016.0 |
| 20260905103302 | 90 | 270 | 8.7 | 0.0 | 0.00 | 0.00 | 0.00 | 27 | 1016.0 |
| 20260905101802 | 90 | 260 | 7.8 | 0.0 | 0.00 | 0.00 | 0.00 | 27 | 1016.0 |
| 20260905100303 | 90 | 260 | 7.8 | 0.0 | 0.00 | 0.00 | 0.00 | 27 | 1016.0 |
| 20260905094915 | 88 | 260 | 9.6 | 0.0 | 0.00 | 0.00 | 0.00 | 27 | 1016.0 |
| 20260905093302 | 88 | 260 | 9.6 | 0.0 | 0.00 | 0.00 | 0.00 | 27 | 1016.0 |
| 20260905091802 | 86 | 260 | 8.7 | 0.0 | 0.00 | 0.00 | 0.00 | 33 | 1016.0 |
| 20260905090302 | 86 | 260 | 8.7 | 0.0 | 0.00 | 0.00 | 0.00 | 33 | 1016.0 |
| 20260905084802 | 84 | 290 | 7.0 | 0.0 | 0.00 | 0.00 | 0.00 | 33 | 1017.0 |
| 20260905083302 | 84 | 290 | 7.0 | 0.0 | 0.00 | 0.00 | 0.00 | 33 | 1017.0 |
| 20260905081802 | 82 | 250 | 6.1 | 0.0 | 0.00 | 0.00 | 0.00 | 40 | 1017.0 |
| 20260905080303 | 82 | 250 | 6.1 | 0.0 | 0.00 | 0.00 | 0.00 | 40 | 1017.0 |
| 20260905074802 | 81 | 280 | 5.2 | 0.0 | 0.00 | 0.00 | 0.00 | 42 | 1017.0 |
| 20260905073311 | 81 | 280 | 5.2 | 0.0 | 0.00 | 0.00 | 0.00 | 42 | 1017.0 |
| 20260905071802 | 77 | 290 | 7.8 | 0.0 | 0.00 | 0.00 | 0.00 | 47 | 1017.0 |
| 20260905070302 | 77 | 290 | 7.8 | 0.0 | 0.00 | 0.00 | 0.00 | 47 | 1017.0 |
| 20260905064802 | 73 | 270 | 7.8 | 0.0 | 0.00 | 0.00 | 0.00 | 61 | 1017.0 |
| 20260905063302 | 73 | 270 | 7.8 | 0.0 | 0.00 | 0.00 | 0.00 | 61 | 1017.0 |
| 20260905061803 | 70 | 270 | 6.1 | 0.0 | 0.00 | 0.00 | 0.00 | 69 | 1017.0 |
| 20260905060303 | 70 | 270 | 6.1 | 0.0 | 0.00 | 0.00 | 0.00 | 69 | 1017.0 |
| 20260905054802 | 66 | 260 | 5.2 | 0.0 | 0.00 | 0.00 | 0.00 | 78 | 1016.0 |
| 20260905053303 | 66 | 260 | 5.2 | 0.0 | 0.00 | 0.00 | 0.00 | 78 | 1016.0 |
| 20260905051802 | 64 | 270 | 5.2 | 0.0 | 0.00 | 0.00 | 0.00 | 83 | 1016.0 |
| 20260905050302 | 64 | 270 | 5.2 | 0.0 | 0.00 | 0.00 | 0.00 | 83 | 1016.0 |
| 20260905044802 | 61 | 260 | 4.3 | 0.0 | 0.00 | 0.00 | 0.00 | 88 | 1016.0 |
| 20260905043302 | 61 | 260 | 4.3 | 0.0 | 0.00 | 0.00 | 0.00 | 88 | 1016.0 |
| 20260905041802 | 59 | 240 | 4.3 | 0.0 | 0.00 | 0.00 | 0.00 | 94 | 1016.0 |
| 20260905040302 | 59 | 240 | 4.3 | 0.0 | 0.00 | 0.00 | 0.00 | 94 | 1016.0 |
| 20260905034802 | 59 | 250 | 2.6 | 0.0 | 0.00 | 0.00 | 0.00 | 94 | 1016.0 |
| 20260905033302 | 59 | 250 | 2.6 | 0.0 | 0.00 | 0.00 | 0.00 | 94 | 1016.0 |
| 20260905031802 | 59 | 0 | 0.0 | 0.0 | 0.00 | 0.00 | 0.00 | 94 | 1016.0 |
| 20260905030302 | 59 | 0 | 0.0 | 0.0 | 0.00 | 0.00 | 0.00 | 94 | 1016.0 |
| 20260905024815 | 59 | 1.7 | 0.0 | 0.00 | 0.00 | 0.00 | 94 | 1016.0 | |
| 20260905023302 | 59 | 1.7 | 0.0 | 0.00 | 0.00 | 0.00 | 94 | 1016.0 | |
| 20260905021802 | 59 | 310 | 4.3 | 0.0 | 0.00 | 0.00 | 0.00 | 94 | 1016.0 |
| 20260905020303 | 59 | 310 | 4.3 | 0.0 | 0.00 | 0.00 | 0.00 | 94 | 1016.0 |
| 20260905014802 | 61 | 1.7 | 0.0 | 0.00 | 0.00 | 0.00 | 94 | 1016.0 | |
| 20260905013302 | 61 | 1.7 | 0.0 | 0.00 | 0.00 | 0.00 | 94 | 1016.0 | |
| 20260905011802 | 61 | 0 | 0.0 | 0.0 | 0.00 | 0.00 | 0.00 | 94 | 1016.0 |